Location: Brno
(49.2000°N, 16.6330°E)
Time: 00:57:12
(UTC+02:00)

Transit 4A - Pass Details

Date: 26 July 2021
Orbit: 870 x 974 km, 66.8° (Epoch: 26 September)

Event Time Altitude Azimuth Distance (km) Brightness Sun altitude
Rises 01:22:12 0° 181° (S) 3,497 - -21.2°
Reaches altitude 10° 01:24:58 10° 171° (S) 2,547 - -21.1°
Exits shadow 01:28:30 27° 138° (SE) 1,630 8.8 -21.1°
Maximum altitude 01:30:01 31° 111° (ESE) 1,509 8.9 -21.0°
Drops below altitude 10° 01:35:01 10° 52° (NE) 2,528 10.8 -20.9°
Sets 01:37:45 0° 42° (NE) 3,468 11.8 -20.9°
